Inquirer Daily News

Weather

Get conditions and forecasts for any City, State, ZIP code or Country:  
Northeast Philadelphia, PA
on Wednesday, November 7, 2012

Wednesday
Previous Day Next Day
Daily Summary
 ActualAverage (KTTN)Record (KTTN)
Temperature
Mean Temperature °F 48°F  
Max Temperature 39°F 58°F 76°F (1975)
Min Temperature 33°F 39°F 24°F (1993)
Degree Days
Heating Degree Days 29 17  
Month to date heating degree days 111  
Since 1 July heating degree days 508  
Cooling Degree Days 0 0  
Month to date cooling degree days 0  
Year to date cooling degree days 965  
Moisture
Dew Point 30°F   
Average Humidity 83    
Maximum Humidity 96    
Minimum Humidity 52    
Precipitation
Precipitation 0.48 in 0.11 in 2.73 in (1977)
Month to date precipitation 0.73  
Year to date precipitation 40.16  
Wind
Wind Speed 15 mph   
Max Wind Speed 22 mph   
Max Gust Speed 31 mph   
Visibility 4 miles   
Events Rain , Snow   

Key: T is trace of precipitation, MM is missing value
Source: NWS Daily Summary
Time(EST)TemperatureDew PointHumidity Pressure Visibility Wind DirectionWind SpeedGust SpeedPrecipitationEvents Conditions
12:54 AM 37.0°F 23.0°F 57% 30.02 in 10.0 miles NNE 16.1 mph - N/A   Clear
1:54 AM 37.0°F 23.0°F 57% 30.01 in 10.0 miles NNE 11.5 mph 18.4 mph N/A   Partly Cloudy
2:54 AM 36.0°F 23.0°F 59% 29.99 in 10.0 miles NNE 12.7 mph - N/A   Clear
3:54 AM 37.0°F 24.1°F 59% 29.95 in 10.0 miles NNE 18.4 mph - N/A   Partly Cloudy
4:54 AM 37.0°F 21.0°F 52% 29.95 in 10.0 miles NE 16.1 mph - N/A   Mostly Cloudy
5:54 AM 37.0°F 21.0°F 52% 29.96 in 10.0 miles NNE 13.8 mph 23.0 mph N/A   Overcast
6:54 AM 37.0°F 24.1°F 59% 29.96 in 10.0 miles NNE 11.5 mph - N/A   Overcast
7:54 AM 37.9°F 25.0°F 60% 29.96 in 10.0 miles NNE 11.5 mph - N/A   Overcast
8:54 AM 39.0°F 26.1°F 60% 29.94 in 10.0 miles NNE 15.0 mph 26.5 mph N/A   Overcast
9:54 AM 39.9°F 27.0°F 60% 29.92 in 10.0 miles NNE 16.1 mph 24.2 mph N/A   Overcast
10:54 AM 39.9°F 27.0°F 60% 29.91 in 10.0 miles NNE 18.4 mph 24.2 mph N/A   Overcast
11:51 AM 37.4°F 30.2°F 75% 29.89 in 9.0 miles North 13.8 mph 27.6 mph 0.00 in Snow Light Snow
11:54 AM 37.9°F 30.0°F 73% 29.90 in 9.0 miles North 16.1 mph 21.9 mph 0.00 in Snow Light Snow
12:18 PM 37.4°F 30.2°F 75% 29.89 in 2.0 miles North 15.0 mph 23.0 mph 0.01 in Snow Light Snow
12:50 PM 33.8°F 30.2°F 87% 29.87 in 2.0 miles NNW 10.4 mph - 0.04 in Snow Light Snow
12:54 PM 34.0°F 32.0°F 92% 29.88 in 3.0 miles NNW 10.4 mph - 0.05 in Rain Light Rain
1:42 PM 35.6°F 32.0°F 87% 29.88 in 3.0 miles North 12.7 mph - 0.01 in Snow Light Snow
1:50 PM 35.6°F 32.0°F 87% 29.88 in 2.0 miles North 15.0 mph 20.7 mph 0.01 in Snow Light Snow
1:54 PM 36.0°F 32.0°F 86% 29.89 in 2.0 miles North 19.6 mph 25.3 mph 0.01 in Snow Light Snow
2:27 PM 33.8°F 32.0°F 93% 29.88 in 2.0 miles North 17.3 mph - 0.04 in Snow Light Snow
2:54 PM 34.0°F 32.0°F 92% 29.89 in 2.0 miles North 12.7 mph - 0.07 in Snow Light Snow
3:42 PM 35.6°F 33.8°F 93% 29.87 in 2.0 miles North 16.1 mph 24.2 mph 0.03 in Snow Light Snow
3:54 PM 35.1°F 33.1°F 92% 29.88 in 2.0 miles North 16.1 mph 23.0 mph 0.04 in Rain Light Freezing Rain
4:12 PM 35.6°F 33.8°F 93% 29.88 in 2.0 miles North 18.4 mph 26.5 mph 0.01 in Snow Light Snow
4:46 PM 33.8°F 32.0°F 93% 29.88 in 2.5 miles North 16.1 mph 23.0 mph 0.06 in Snow Light Snow
4:54 PM 34.0°F 32.0°F 92% 29.88 in 2.0 miles North 16.1 mph - 0.07 in Snow Light Snow
5:01 PM 33.8°F 32.0°F 93% 29.87 in 1.5 miles North 17.3 mph 24.2 mph 0.00 in Snow Light Snow
5:15 PM 33.8°F 32.0°F 93% 29.87 in 1.8 miles North 18.4 mph 25.3 mph 0.02 in Snow Light Snow
5:19 PM 33.8°F 32.0°F 93% 29.87 in 1.8 miles North 17.3 mph 27.6 mph 0.02 in Snow Light Snow
5:30 PM 33.8°F 32.0°F 93% 29.87 in 2.5 miles NNW 21.9 mph 31.1 mph 0.03 in Snow Light Snow
5:44 PM 33.8°F 32.0°F 93% 29.87 in 4.0 miles NNW 15.0 mph 25.3 mph 0.04 in Snow Light Snow
5:54 PM 34.0°F 32.0°F 92% 29.88 in 4.0 miles NNW 16.1 mph 24.2 mph 0.04 in Snow Light Snow
6:21 PM 33.8°F 32.0°F 93% 29.88 in 7.0 miles North 12.7 mph 21.9 mph 0.02 in Snow Light Snow
6:54 PM 34.0°F 33.1°F 96% 29.89 in 5.0 miles North 11.5 mph 20.7 mph 0.03 in Snow Light Snow
7:01 PM 33.8°F 32.0°F 93% 29.89 in 4.0 miles North 11.5 mph - 0.01 in Snow Light Snow
7:37 PM 33.8°F 32.0°F 93% 29.88 in 5.0 miles North 15.0 mph 20.7 mph 0.03 in Snow Light Snow
7:54 PM 34.0°F 32.0°F 92% 29.88 in 3.0 miles North 11.5 mph - 0.04 in Snow Light Snow
8:01 PM 33.8°F 32.0°F 93% 29.88 in 2.5 miles North 12.7 mph - 0.01 in Snow Light Snow
8:35 PM 33.8°F 32.0°F 93% 29.88 in 3.0 miles North 17.3 mph 23.0 mph 0.04 in Snow Light Snow
8:42 PM 33.8°F 32.0°F 93% 29.87 in 4.0 miles North 16.1 mph 24.2 mph 0.04 in Snow Light Snow
8:54 PM 34.0°F 32.0°F 92% 29.88 in 6.0 miles North 17.3 mph 25.3 mph 0.05 in Snow Light Snow
9:16 PM 33.8°F 30.2°F 87% 29.86 in 2.5 miles North 18.4 mph - 0.01 in Snow Light Snow
9:18 PM 33.8°F 30.2°F 87% 29.86 in 1.8 miles North 19.6 mph 26.5 mph 0.01 in Snow Light Snow
9:34 PM 33.8°F 30.2°F 87% 29.86 in 1.2 miles North 17.3 mph - 0.01 in Snow Light Snow
9:54 PM 33.1°F 30.9°F 92% 29.86 in 1.0 miles North 16.1 mph 24.2 mph 0.01 in Snow Light Snow
10:07 PM 33.8°F 30.2°F 87% 29.86 in 1.2 miles North 16.1 mph 23.0 mph 0.00 in Snow Light Snow
10:20 PM 33.8°F 30.2°F 87% 29.85 in 1.2 miles North 15.0 mph 24.2 mph 0.00 in Snow Light Snow
10:54 PM 33.1°F 30.9°F 92% 29.84 in 1.5 miles North 16.1 mph 21.9 mph 0.01 in Snow Light Snow
11:06 PM 33.8°F 30.2°F 87% 29.84 in 1.8 miles North 13.8 mph 21.9 mph 0.00 in Snow Light Snow
11:33 PM 33.8°F 30.2°F 87% 29.83 in 1.5 miles NNW 13.8 mph 23.0 mph 0.06 in Snow Light Snow
11:39 PM 33.8°F 30.2°F 87% 29.83 in 2.0 miles NNW 15.0 mph 23.0 mph 0.06 in Snow Light Snow
11:54 PM 34.0°F 30.9°F 89% 29.83 in 2.5 miles NNW 15.0 mph 24.2 mph 0.06 in Snow Light Snow
Astronomy
Sunrise:06:36 AM (EST) Moon Rise:No Moon Rise/
Sunset:04:50 PM (EST) Moon Set:12:58 PM (EST)11/7
Moon Phase
Nov. 07 Nov. 13 Nov. 20 Nov. 28 Dec. 06

Copyright © 2014 The Weather Underground, Inc.